KHALIFASAT

导读

KHALIFASAT(哈利法卫星)是阿联酋(AE)完全自主研发的首颗国产人造卫星,由本土工程师团队全程打造,于2018年10月29日发射升空。该卫星运行在580-620千米近地轨道,可拍摄高分辨率地球影像,服务城市规划、环境监测、灾害救援等领域,是阿联酋航天事业的里程碑,标志其迈入本土太空技术发展新阶段。

Basic Information
目录编号:
43676
目录名称:
KHALIFASAT
国际标识:
2018-084F
轨道中心:
EARTH
卫星名称:
KHALIFASAT
卫星全名:
--
卫星状态:
在轨 (已飞行2875 天)
发射日期:
2018-10-29 UTC
国别 :
(AE)
星等 :
--
This satellite is enrolled in the Space Conjunction Data Service (SCDS) and the current flight risk assessment level is: No High Risk
Orbit Information
数据来源 国际轨道数据 AOE轨道数据
星历时间 2026-09-12T11:58:42+0800
4小时前
查看轨道信息
2026-09-10T22:00:00+0800
1天前
查看轨道信息
半长轴 6940.248km 6940.249km
偏心率 0.0005189 0.0004942
轨道倾角 98.084° 98.085°
近地点辐角 179.398° 183.082°
升交点赤经 81.119° 79.472°
平近点角 180.725° 268.335°
近地点 558.509km 558.682km
远地点 565.713km 565.542km
周期 95.901分钟 95.901分钟
每日圈数 15.015518 15.015515
Detailed Information
使用方式:
暂无
2D Orbit Map
3D Orbit Map
Orbit Altitude Analysis Chart
Orbit Inclination Analysis Chart
Orbit Comprehensive Analysis Chart
View Comprehensive Chart
Conjunction Data List
Event ID Objects TCA Miss Dist (km) Collision Risk Probability Collision Risk Index (CRI) Action
CDM_260912-093002-887604-367624
2026-09-12T
09:30:50+0000
0.326 km
远距离
4.639397E-4 高风险 0.88
CDM_260914-110904-292104-367622
2026-09-14T
11:09:14+0000
1.247 km
极远距离
1.052721E-5 中风险 0.55
CDM_260913-230404-367606-977521
2026-09-13T
23:04:04+0000
1.495 km
极远距离
6.698104E-6 低风险 0.52
CDM_260913-160103-120204-367624
2026-09-13T
16:01:27+0000
2.891 km
极远距离
1.416011E-6 低风险 0.38
Miss Distance Evolution Trend with All Objects
Collision Probability Evolution Trend with All Objects